Total_Precipitation_Accumulation
0.90 0.93 0.93 0.81 0.68 0.63 0.59 0.54 0.55 0.58 0.62 0.63 0.66 0.75 0.78 0.80 0.81 0.82 0.86 0.94 1.02 1.13 1.20 1.33 1.53 1.72 1.80 1.78 1.82 1.89 1.94 1.82 1.57 1.42 1.19 1.17 1.31 1.27 1.26 1.21 1.30 1.35 1.13
0.84 0.83 0.82 0.75 0.66 0.65 0.58 0.50 0.52 0.58 0.60 0.60 0.65 0.69 0.69 0.75 0.78 0.76 0.76 0.80 0.92 1.00 1.01 1.03 1.13 1.37 1.52 1.65 1.72 1.74 1.82 1.80 1.65 1.62 1.53 1.32 1.27 1.26 1.36 1.44 1.38 1.35 1.30
0.89 0.82 0.81 0.77 0.75 0.77 0.66 0.57 0.56 0.65 0.76 0.76 0.76 0.78 0.74 0.77 0.77 0.77 0.80 0.83 0.86 0.91 0.93 0.93 1.01 1.12 1.28 1.36 1.45 1.56 1.64 1.75 1.74 1.56 1.62 1.58 1.37 1.32 1.35 1.43 1.49 1.59 1.46
1.08 0.96 0.89 0.84 0.83 0.81 0.69 0.62 0.58 0.62 0.66 0.67 0.74 0.81 0.88 0.93 0.90 0.85 0.85 0.85 0.80 0.81 0.88 0.95 0.96 0.99 1.15 1.36 1.46 1.53 1.56 1.67 1.78 1.71 1.65 1.64 1.49 1.42 1.40 1.43 1.56 1.66 1.66
1.11 0.98 0.88 0.80 0.72 0.68 0.66 0.66 0.61 0.56 0.55 0.55 0.62 0.71 0.81 0.91 0.95 0.94 0.82 0.72 0.72 0.76 0.76 0.77 0.84 0.93 1.00 1.18 1.31 1.54 1.56 1.67 1.74 1.80 1.73 1.59 1.46 1.41 1.39 1.38 1.47 1.66 1.70
0.91 0.87 0.75 0.72 0.65 0.57 0.61 0.68 0.67 0.55 0.50 0.51 0.54 0.52 0.55 0.60 0.79 0.80 0.69 0.57 0.60 0.68 0.74 0.76 0.75 0.78 0.81 0.88 0.92 1.17 1.36 1.48 1.59 1.61 1.67 1.56 1.43 1.38 1.47 1.51 1.49 1.51 1.60
0.60 0.62 0.52 0.52 0.63 0.66 0.67 0.66 0.58 0.48 0.49 0.48 0.43 0.38 0.40 0.45 0.53 0.53 0.60 0.58 0.58 0.61 0.68 0.76 0.81 0.79 0.86 0.95 0.92 0.97 1.07 1.14 1.27 1.39 1.44 1.40 1.39 1.36 1.45 1.51 1.49 1.41 1.33
0.32 0.31 0.28 0.37 0.51 0.54 0.50 0.47 0.42 0.41 0.45 0.51 0.43 0.40 0.44 0.43 0.48 0.55 0.58 0.56 0.66 0.72 0.72 0.71 0.81 0.87 0.94 1.11 1.09 1.15 1.09 1.00 1.01 1.07 1.21 1.26 1.23 1.33 1.42 1.59 1.68 1.54 1.41
0.13 0.14 0.17 0.19 0.23 0.24 0.22 0.24 0.30 0.37 0.41 0.37 0.40 0.54 0.54 0.53 0.63 0.58 0.50 0.56 0.68 0.76 0.71 0.72 0.82 0.91 1.09 1.21 1.22 1.23 1.13 1.06 1.12 1.21 1.27 1.33 1.34 1.40 1.47 1.54 1.61 1.62 1.52
0.12 0.13 0.14 0.15 0.18 0.18 0.19 0.20 0.23 0.26 0.32 0.34 0.38 0.52 0.57 0.62 0.63 0.49 0.47 0.56 0.69 0.77 0.76 0.74 0.94 0.95 1.04 1.10 1.15 1.27 1.29 1.17 1.13 1.14 1.17 1.20 1.19 1.27 1.48 1.50 1.62 1.72 1.59
0.16 0.14 0.13 0.14 0.16 0.22 0.26 0.25 0.24 0.23 0.25 0.29 0.33 0.39 0.40 0.40 0.41 0.41 0.43 0.49 0.59 0.71 0.74 0.74 0.71 0.85 0.87 0.97 1.09 1.15 1.38 1.28 1.21 1.22 1.18 1.07 1.05 1.10 1.22 1.40 1.55 1.64 1.60
0.16 0.15 0.15 0.16 0.19 0.22 0.30 0.32 0.28 0.26 0.24 0.25 0.30 0.37 0.39 0.33 0.30 0.32 0.36 0.42 0.54 0.58 0.59 0.66 0.65 0.74 0.78 0.85 0.87 1.06 1.25 1.21 1.14 1.23 1.24 1.16 1.07 1.06 1.08 1.16 1.32 1.40 1.37
0.17 0.17 0.18 0.19 0.21 0.22 0.25 0.27 0.29 0.28 0.28 0.29 0.31 0.35 0.36 0.36 0.35 0.37 0.40 0.45 0.48 0.44 0.42 0.58 0.65 0.73 0.70 0.69 0.81 1.01 1.07 1.09 1.24 1.20 1.22 1.18 1.09 1.06 1.00 1.05 1.16 1.22 1.18
0.20 0.20 0.19 0.21 0.24 0.26 0.28 0.29 0.32 0.34 0.34 0.34 0.35 0.38 0.41 0.41 0.38 0.36 0.38 0.41 0.42 0.41 0.42 0.57 0.70 0.76 0.73 0.70 0.77 0.90 0.96 1.09 1.25 1.15 1.11 1.07 1.02 1.03 1.01 1.00 1.03 1.10 1.15
0.24 0.24 0.24 0.24 0.26 0.29 0.33 0.35 0.33 0.34 0.36 0.34 0.36 0.39 0.39 0.36 0.36 0.38 0.39 0.41 0.43 0.46 0.55 0.71 0.83 0.84 0.85 0.81 0.83 0.93 0.91 0.89 0.97 0.95 0.97 1.00 1.01 1.01 0.96 0.90 0.93 0.97 1.02
0.25 0.26 0.24 0.27 0.31 0.32 0.33 0.32 0.33 0.34 0.36 0.35 0.33 0.36 0.37 0.35 0.36 0.39 0.43 0.46 0.45 0.55 0.73 0.89 1.00 1.07 1.07 1.02 0.98 0.96 0.88 0.86 0.83 0.85 0.94 0.96 0.94 0.97 0.97 0.92 0.94 0.97 0.97
0.22 0.22 0.22 0.24 0.25 0.28 0.30 0.30 0.33 0.34 0.34 0.34 0.33 0.34 0.35 0.36 0.37 0.44 0.50 0.53 0.57 0.77 0.97 1.01 1.05 1.10 1.13 1.08 0.97 0.88 0.77 0.70 0.72 0.79 0.81 0.82 0.86 0.90 0.95 0.95 0.94 0.92 0.88
0.23 0.28 0.26 0.23 0.24 0.25 0.25 0.26 0.31 0.34 0.36 0.34 0.34 0.33 0.34 0.35 0.39 0.50 0.63 0.74 0.78 0.90 1.01 1.04 1.12 1.11 1.06 0.94 0.82 0.72 0.62 0.59 0.63 0.66 0.65 0.64 0.70 0.77 0.83 0.87 0.89 0.88 0.84
0.22 0.26 0.30 0.28 0.27 0.28 0.28 0.25 0.25 0.29 0.32 0.33 0.33 0.32 0.31 0.33 0.35 0.41 0.49 0.54 0.55 0.63 0.71 0.76 0.80 0.82 0.77 0.68 0.62 0.59 0.55 0.53 0.54 0.56 0.58 0.59 0.65 0.67 0.69 0.74 0.82 0.90 0.91
0.19 0.26 0.30 0.32 0.31 0.29 0.30 0.28 0.25 0.24 0.25 0.26 0.28 0.31 0.34 0.36 0.36 0.36 0.35 0.37 0.41 0.44 0.49 0.52 0.52 0.50 0.50 0.51 0.52 0.53 0.54 0.54 0.55 0.57 0.61 0.63 0.67 0.71 0.69 0.70 0.75 0.81 0.85
0.17 0.22 0.30 0.34 0.31 0.29 0.29 0.29 0.28 0.27 0.26 0.27 0.28 0.31 0.36 0.36 0.35 0.37 0.38 0.38 0.40 0.42 0.45 0.47 0.47 0.46 0.46 0.48 0.53 0.55 0.58 0.57 0.56 0.59 0.64 0.65 0.67 0.71 0.72 0.75 0.77 0.81 0.84
0.18 0.21 0.26 0.30 0.34 0.34 0.31 0.29 0.29 0.28 0.27 0.28 0.29 0.30 0.36 0.37 0.39 0.41 0.42 0.44 0.45 0.45 0.45 0.46 0.47 0.49 0.50 0.53 0.58 0.64 0.65 0.65 0.63 0.62 0.64 0.67 0.68 0.70 0.72 0.75 0.78 0.84 0.86
0.23 0.24 0.27 0.30 0.33 0.37 0.37 0.33 0.33 0.34 0.33 0.33 0.34 0.32 0.34 0.35 0.38 0.41 0.40 0.42 0.45 0.45 0.43 0.43 0.46 0.48 0.49 0.50 0.53 0.60 0.64 0.66 0.68 0.69 0.72 0.74 0.76 0.78 0.81 0.81 0.78 0.79 0.84
0.27 0.28 0.28 0.28 0.30 0.32 0.34 0.36 0.37 0.38 0.38 0.37 0.36 0.35 0.35 0.36 0.37 0.39 0.39 0.39 0.42 0.44 0.45 0.46 0.47 0.49 0.52 0.54 0.57 0.59 0.61 0.67 0.73 0.80 0.84 0.86 0.84 0.84 0.87 0.88 0.86 0.86 0.93
0.24 0.28 0.29 0.30 0.31 0.33 0.35 0.37 0.40 0.43 0.43 0.43 0.44 0.45 0.43 0.42 0.42 0.45 0.46 0.45 0.45 0.45 0.46 0.48 0.51 0.52 0.56 0.59 0.61 0.65 0.75 0.79 0.77 0.79 0.82 0.86 0.84 0.85 0.88 0.88 0.89 0.90 0.95
0.24 0.28 0.32 0.34 0.36 0.39 0.41 0.40 0.43 0.46 0.47 0.47 0.47 0.47 0.48 0.50 0.50 0.51 0.54 0.56 0.57 0.56 0.55 0.57 0.57 0.56 0.55 0.56 0.57 0.62 0.70 0.71 0.72 0.76 0.79 0.84 0.88 0.88 0.90 0.94 0.91 0.90 0.93